Home   Weather   Wichita   Past weeks
Flag for USA

Past Weather in Wichita, Kansas, USA — Yesterday and Last 2 Weeks

Now
58 °F

Passing clouds.


Feels Like: 54 °F
Forecast: 66 / 42 °F
Wind: 18 mph from Northwest

Location: Wichita Mid-Continent Airport

Current Time: Oct 21, 2019 at 8:10:41 pm

Latest Report: Oct 21, 2019 at 6:53 pm


Visibility: 10 mi

Pressure: 29.86 "Hg

Humidity: 28%

Dew Point: 25 °F

Location of WichitaLocation

Past Weather in Wichita — Graph

°F

Wichita Temperature Yesterday

Maximum temperature yesterday: 74 °F (at 3:53 pm)
Minimum temperature yesterday: 46 °F (at 5:53 am)
Average temperature yesterday: 59 °F

High & Low Weather Summary for the Past Weeks

 TemperatureHumidityPressure
High79 °F (Oct 14, 2:53 pm)97% (Oct 15, 5:08 am)30.36 "Hg (Oct 15, 5:08 am)
Low31 °F (Oct 12, 7:53 am)21% (Oct 12, 3:53 pm)29.54 "Hg (Oct 20, 3:53 pm)
Average57 °F60%29.93 "Hg
* Reported Oct 6 6:53 pm — Oct 21 6:53 pm, Wichita. Weather by CustomWeather, © 2019

Note: Actual official high and low records may vary slightly from our data, if they occured in-between our weather recording intervals... More about our weather records

Advertising

Wichita Weather History for the Previous 24 Hours

Scroll right to see more
 ConditionsComfort  
Time TempWeatherWind HumidityBarometerVisibility
6:53 pm
Mon, Oct 21
58 °FPassing clouds.18 mph28%29.86 "Hg10 mi
5:53 pm61 °FPassing clouds.22 mph27%29.83 "Hg10 mi
4:53 pm63 °FPassing clouds.22 mph28%29.80 "Hg10 mi
3:53 pm65 °FPassing clouds.22 mph26%29.76 "Hg10 mi
2:53 pm64 °FPassing clouds.29 mph26%29.75 "Hg10 mi
1:53 pm65 °FSunny.28 mph24%29.73 "Hg10 mi
12:53 pm63 °FSunny.22 mph28%29.74 "Hg10 mi
11:53 am61 °FSunny.26 mph31%29.74 "Hg10 mi
10:53 am58 °FSunny.23 mph38%29.74 "Hg10 mi
9:53 am55 °FSunny.23 mph42%29.72 "Hg10 mi
8:53 am51 °FSunny.18 mph48%29.70 "Hg10 mi
7:53 am48 °FScattered clouds.17 mph54%29.69 "Hg10 mi
6:53 am49 °FPassing clouds.21 mph55%29.67 "Hg10 mi
5:53 am49 °FPassing clouds.14 mph55%29.67 "Hg10 mi
4:53 am50 °FPassing clouds.17 mph50%29.65 "Hg10 mi
3:53 am51 °FPassing clouds.17 mph50%29.65 "Hg10 mi
2:53 am52 °FPassing clouds.18 mph47%29.64 "Hg10 mi
1:53 am53 °FPassing clouds.15 mph45%29.62 "Hg10 mi
12:53 am52 °FPassing clouds.9 mph49%29.63 "Hg10 mi
11:53 pm
Sun, Oct 20
53 °FPassing clouds.9 mph56%29.62 "Hg10 mi
10:53 pm53 °FPassing clouds.8 mph61%29.57 "Hg10 mi
9:53 pm58 °FMostly cloudy.10 mph50%29.61 "Hg10 mi
9:05 pm64 °FThunderstorms. Mostly cloudy.18 mph29%29.64 "Hg10 mi
Weather by CustomWeather, © 2019

See weather overview